📊 Raw Sensor Data
Showing records 33526 to 33550 of 84,782 total
| ID | Distance (ft) | Battery V | Battery A | Int Temp (°F) | Int Humid (%) | Ext Temp (°F) | Solar V | RSSI | SNR | Time Stamp |
|---|---|---|---|---|---|---|---|---|---|---|
| 51269 | 14.7 | 3.94 | -5 | 61 | 45 | 62 | 0.00 | -72 | 8 | 09/06/2025 11:15 PM |
| 51268 | 14.7 | 3.94 | -5 | 61 | 45 | 62 | 0.00 | -71 | 8 | 09/06/2025 11:00 PM |
| 51267 | 14.7 | 4.00 | -5 | 61 | 45 | 62 | 0.00 | -73 | 8 | 09/06/2025 10:45 PM |
| 51266 | 14.7 | 3.94 | -5 | 62 | 45 | 63 | 0.00 | -71 | 8 | 09/06/2025 10:30 PM |
| 51265 | 14.7 | 4.00 | -5 | 62 | 45 | 63 | 0.10 | -72 | 8 | 09/06/2025 10:15 PM |
| 51264 | 14.7 | 4.00 | -5 | 62 | 45 | 63 | 0.00 | -72 | 7 | 09/06/2025 10:00 PM |
| 51263 | 14.7 | 4.00 | -5 | 62 | 46 | 63 | 0.00 | -73 | 8 | 09/06/2025 09:45 PM |
| 51262 | 14.7 | 4.00 | -5 | 62 | 46 | 63 | 0.00 | -74 | 8 | 09/06/2025 09:30 PM |
| 51261 | 14.7 | 4.00 | -5 | 63 | 47 | 64 | 0.00 | -71 | 8 | 09/06/2025 09:15 PM |
| 51260 | 14.7 | 4.00 | -5 | 64 | 47 | 64 | 0.00 | -74 | 8 | 09/06/2025 09:00 PM |
| 51259 | 14.7 | 4.00 | -5 | 64 | 48 | 65 | 0.00 | -72 | 8 | 09/06/2025 08:45 PM |
| 51258 | 14.7 | 3.95 | -5 | 65 | 49 | 66 | 0.00 | -72 | 8 | 09/06/2025 08:30 PM |
| 51257 | 14.6 | 3.95 | -5 | 66 | 50 | 66 | 0.00 | -72 | 8 | 09/06/2025 08:15 PM |
| 51256 | 14.6 | 3.95 | -5 | 67 | 51 | 67 | 0.00 | -73 | 8 | 09/06/2025 08:00 PM |
| 51255 | 14.7 | 3.95 | -5 | 68 | 53 | 67 | 0.30 | -73 | 8 | 09/06/2025 07:45 PM |
| 51254 | 14.6 | 4.00 | -10 | 71 | 54 | 68 | 4.20 | -74 | 8 | 09/06/2025 07:30 PM |
| 51253 | 14.6 | 3.96 | 0 | 76 | 52 | 71 | 4.50 | -72 | 7 | 09/06/2025 07:15 PM |
| 51252 | 14.6 | 4.03 | 0 | 80 | 51 | 74 | 4.50 | -74 | 8 | 09/06/2025 07:00 PM |
| 51251 | 14.7 | 4.02 | 19 | 83 | 50 | 77 | 4.50 | -72 | 8 | 09/06/2025 06:45 PM |
| 51250 | 14.7 | 4.08 | 48 | 85 | 50 | 77 | 4.50 | -73 | 8 | 09/06/2025 06:30 PM |
| 51249 | 14.7 | 4.12 | 55 | 87 | 49 | 79 | 4.50 | -72 | 7 | 09/06/2025 06:15 PM |
| 51248 | 14.8 | 3.98 | 6 | 91 | 47 | 81 | 5.10 | -75 | 7 | 09/06/2025 05:45 PM |
| 51247 | 14.8 | 3.98 | 6 | 92 | 47 | 83 | 5.10 | -73 | 8 | 09/06/2025 05:30 PM |
| 51246 | 14.9 | 4.06 | 6 | 92 | 47 | 83 | 5.10 | -74 | 7 | 09/06/2025 05:15 PM |
| 51245 | 14.9 | 3.98 | 0 | 93 | 47 | 83 | 5.10 | -74 | 7 | 09/06/2025 05:00 PM |